DLH1537 EDDF-BIKF

Flight info

Callsign DLH1537
Flight time N/A
Altitude 34000
Route OBOKA3M/25C OBOKA Z28 DIBIR DCT BUDIP DCT GODOS DCT BALIX/M078F340 DCT BREKI DCT BASLU BASLU3H
Aircraft A333/H-SDE3GHIJ2J3J5M1RVWXY/LB2D1

Departure

Time N/A
Airport Frankfurt Main Airport (EDDF)

Arrival

Time 2026-05-03 21:00
Airport Keflavik International Airport (BIKF)
Time Latitude Longitude Altitude Speed Heading
2026-05-03 20:15 62.73210 -20.04599 28023 ft 354 kts 309°
2026-05-03 20:15 62.74768 -20.08675 27359 ft 351 kts 309°
2026-05-03 20:15 62.76307 -20.12707 26705 ft 348 kts 309°
2026-05-03 20:15 62.77857 -20.16777 26032 ft 345 kts 309°
2026-05-03 20:16 62.79371 -20.20748 25365 ft 341 kts 309°
2026-05-03 20:16 62.80877 -20.24718 24712 ft 339 kts 309°
2026-05-03 20:16 62.82388 -20.28694 24054 ft 336 kts 309°
2026-05-03 20:16 62.83863 -20.32597 23419 ft 333 kts 310°
2026-05-03 20:17 62.85332 -20.36482 22780 ft 331 kts 309°
2026-05-03 20:17 62.86794 -20.40355 22141 ft 329 kts 309°
2026-05-03 20:17 62.88244 -20.44202 21499 ft 327 kts 309°
2026-05-03 20:17 62.89691 -20.48049 20859 ft 326 kts 310°
2026-05-03 20:18 62.91125 -20.51873 20220 ft 324 kts 309°
2026-05-03 20:18 62.92547 -20.55669 19577 ft 323 kts 309°
2026-05-03 20:18 62.93958 -20.59439 18943 ft 322 kts 310°
2026-05-03 20:18 62.95392 -20.63278 18291 ft 321 kts 309°
2026-05-03 20:19 62.96806 -20.67073 17654 ft 321 kts 309°
2026-05-03 20:19 62.98211 -20.70850 17022 ft 320 kts 309°
2026-05-03 20:19 62.99623 -20.74652 16386 ft 320 kts 309°
2026-05-03 20:19 63.01026 -20.78431 15750 ft 319 kts 309°
2026-05-03 20:20 63.02431 -20.82228 15109 ft 319 kts 309°
2026-05-03 20:20 63.03827 -20.86006 14467 ft 319 kts 309°
2026-05-03 20:20 63.05228 -20.89798 13825 ft 318 kts 309°
2026-05-03 20:20 63.06605 -20.93537 13191 ft 318 kts 309°
2026-05-03 20:21 63.08015 -20.97374 12536 ft 318 kts 309°
2026-05-03 20:21 63.09401 -21.01149 11889 ft 318 kts 309°
2026-05-03 20:21 63.10808 -21.04990 11235 ft 319 kts 310°
2026-05-03 20:21 63.12210 -21.08821 10588 ft 319 kts 310°
2026-05-03 20:22 63.13602 -21.12633 10190 ft 311 kts 310°
2026-05-03 20:22 63.14949 -21.16326 10124 ft 296 kts 311°
2026-05-03 20:22 63.16250 -21.19891 10039 ft 283 kts 311°
2026-05-03 20:22 63.17457 -21.23206 10000 ft 269 kts 311°
2026-05-03 20:23 63.18618 -21.26359 9949 ft 255 kts 315°
2026-05-03 20:23 63.20026 -21.28553 9990 ft 244 kts 332°
2026-05-03 20:23 63.21502 -21.30372 9928 ft 240 kts 330°
2026-05-03 20:23 63.22974 -21.32208 9946 ft 240 kts 330°
2026-05-03 20:24 63.24423 -21.34012 9943 ft 239 kts 330°
2026-05-03 20:24 63.25891 -21.35812 9941 ft 241 kts 331°
2026-05-03 20:24 63.27338 -21.37594 9943 ft 238 kts 330°
2026-05-03 20:24 63.28793 -21.39401 9949 ft 240 kts 330°
2026-05-03 20:25 63.30255 -21.41225 9976 ft 238 kts 330°
2026-05-03 20:25 63.31681 -21.43007 9974 ft 239 kts 330°
2026-05-03 20:25 63.33131 -21.44826 9974 ft 239 kts 330°
2026-05-03 20:25 63.34573 -21.46638 9975 ft 239 kts 330°
2026-05-03 20:26 63.36049 -21.48496 9975 ft 238 kts 330°
2026-05-03 20:26 63.37505 -21.50330 9877 ft 241 kts 330°
2026-05-03 20:26 63.38990 -21.52207 9389 ft 248 kts 331°
2026-05-03 20:26 63.40491 -21.54106 8995 ft 249 kts 331°
2026-05-03 20:27 63.41987 -21.56000 8595 ft 249 kts 332°
2026-05-03 20:27 63.43478 -21.57888 8188 ft 244 kts 332°
2026-05-03 20:27 63.44931 -21.59731 7767 ft 238 kts 332°
2026-05-03 20:27 63.46338 -21.61517 7353 ft 233 kts 333°
2026-05-03 20:28 63.47713 -21.63264 6946 ft 229 kts 333°
2026-05-03 20:28 63.49096 -21.65024 6540 ft 229 kts 332°
2026-05-03 20:28 63.50476 -21.66781 6137 ft 228 kts 333°
2026-05-03 20:28 63.51875 -21.68564 5730 ft 227 kts 333°
2026-05-03 20:29 63.53243 -21.70308 5331 ft 227 kts 333°
2026-05-03 20:29 63.54614 -21.72062 4978 ft 224 kts 333°
2026-05-03 20:29 63.55963 -21.73790 5010 ft 223 kts 333°
2026-05-03 20:29 63.57343 -21.75553 4987 ft 227 kts 333°
2026-05-03 20:30 63.58718 -21.77317 4980 ft 224 kts 333°
2026-05-03 20:30 63.60112 -21.79104 4990 ft 225 kts 333°
2026-05-03 20:30 63.61474 -21.80855 4984 ft 225 kts 333°
2026-05-03 20:30 63.62852 -21.82630 4977 ft 226 kts 333°
2026-05-03 20:31 63.64234 -21.84424 4977 ft 225 kts 333°
2026-05-03 20:31 63.65598 -21.86206 4973 ft 225 kts 333°
2026-05-03 20:31 63.66955 -21.87970 4968 ft 226 kts 333°
2026-05-03 20:31 63.68310 -21.89725 4965 ft 227 kts 333°
2026-05-03 20:32 63.69678 -21.91496 4965 ft 225 kts 333°
2026-05-03 20:32 63.71016 -21.93232 4950 ft 212 kts 333°
2026-05-03 20:32 63.72267 -21.94856 4954 ft 204 kts 333°
2026-05-03 20:32 63.73500 -21.96452 4977 ft 203 kts 333°
2026-05-03 20:33 63.74748 -21.98073 4912 ft 208 kts 333°
2026-05-03 20:33 63.76028 -21.99735 4362 ft 218 kts 333°
2026-05-03 20:33 63.77358 -22.01457 3849 ft 222 kts 335°
2026-05-03 20:33 63.78739 -22.02960 3345 ft 223 kts 338°
2026-05-03 20:34 63.80148 -22.04473 2933 ft 220 kts 338°
2026-05-03 20:34 63.81477 -22.05898 2967 ft 198 kts 338°
2026-05-03 20:34 63.82669 -22.07171 2924 ft 186 kts 339°
2026-05-03 20:34 63.83815 -22.08389 3021 ft 180 kts 340°
2026-05-03 20:35 63.84961 -22.09595 3028 ft 182 kts 339°
2026-05-03 20:35 63.86062 -22.10772 2914 ft 170 kts 340°
2026-05-03 20:35 63.87121 -22.11896 3021 ft 171 kts 340°
2026-05-03 20:35 63.88202 -22.13048 2944 ft 170 kts 340°
2026-05-03 20:36 63.89261 -22.14182 2964 ft 173 kts 340°
2026-05-03 20:36 63.90348 -22.15346 2970 ft 174 kts 340°
2026-05-03 20:36 63.91447 -22.16526 2966 ft 173 kts 340°
2026-05-03 20:36 63.92524 -22.17685 2963 ft 172 kts 340°
2026-05-03 20:37 63.93599 -22.18839 2965 ft 170 kts 340°
2026-05-03 20:37 63.94678 -22.20001 2969 ft 172 kts 340°
2026-05-03 20:37 63.95766 -22.21172 2969 ft 172 kts 340°
2026-05-03 20:37 63.96836 -22.22326 2966 ft 171 kts 340°
2026-05-03 20:38 63.97883 -22.23552 2909 ft 170 kts 329°
2026-05-03 20:38 63.98621 -22.25531 2856 ft 167 kts 300°
2026-05-03 20:38 63.98677 -22.28177 2932 ft 170 kts 271°
2026-05-03 20:38 63.98566 -22.30891 2726 ft 173 kts 276°
2026-05-03 20:39 63.98526 -22.33571 2469 ft 168 kts 278°
2026-05-03 20:39 63.98512 -22.36241 2228 ft 167 kts 279°
2026-05-03 20:39 63.98507 -22.38888 1992 ft 165 kts 280°
2026-05-03 20:39 63.98507 -22.41536 1753 ft 164 kts 280°
2026-05-03 20:40 63.98510 -22.44184 1518 ft 164 kts 279°
2026-05-03 20:40 63.98512 -22.46805 1288 ft 164 kts 279°
2026-05-03 20:40 63.98512 -22.49389 1064 ft 164 kts 279°
2026-05-03 20:40 63.98512 -22.52009 837 ft 163 kts 279°
2026-05-03 20:41 63.98512 -22.54590 614 ft 162 kts 279°
2026-05-03 20:41 63.98512 -22.57146 396 ft 162 kts 279°
2026-05-03 20:41 63.98519 -22.59720 193 ft 162 kts 278°
2026-05-03 20:41 63.98603 -22.62123 399 ft 153 kts 280°
2026-05-03 20:42 63.98713 -22.64595 946 ft 165 kts 279°
2026-05-03 20:42 63.98824 -22.67401 1517 ft 194 kts 278°
2026-05-03 20:42 63.98953 -22.70725 1930 ft 240 kts 278°
2026-05-03 20:42 63.99121 -22.75025 2521 ft 283 kts 277°
2026-05-03 20:43 63.99299 -22.79841 3074 ft 326 kts 276°
2026-05-03 20:43 63.99287 -22.85132 3055 ft 336 kts 270°
2026-05-03 20:43 63.99198 -22.90432 2801 ft 326 kts 270°
2026-05-03 20:43 63.99120 -22.95352 3090 ft 300 kts 270°
2026-05-03 20:44 63.99034 -23.00007 2954 ft 291 kts 270°
2026-05-03 20:44 63.98941 -23.04501 2979 ft 274 kts 270°
2026-05-03 20:44 63.98846 -23.08678 2982 ft 253 kts 270°
2026-05-03 20:44 63.98733 -23.12551 2957 ft 235 kts 265°
2026-05-03 20:45 63.98188 -23.15951 2981 ft 226 kts 250°
2026-05-03 20:45 63.97533 -23.19145 2998 ft 224 kts 245°
2026-05-03 20:45 63.96525 -23.21880 3010 ft 230 kts 221°
2026-05-03 20:45 63.95090 -23.23511 3031 ft 235 kts 197°
2026-05-03 20:46 63.93458 -23.23714 3057 ft 238 kts 171°
2026-05-03 20:46 63.91923 -23.22390 3096 ft 238 kts 145°
2026-05-03 20:46 63.90735 -23.19826 3151 ft 236 kts 128°
2026-05-03 20:46 63.89658 -23.16997 3208 ft 237 kts 130°
2026-05-03 20:47 63.88515 -23.14152 3195 ft 246 kts 131°
2026-05-03 20:47 63.87350 -23.11330 2919 ft 241 kts 139°
2026-05-03 20:47 63.86078 -23.08952 2994 ft 231 kts 134°
2026-05-03 20:47 63.85036 -23.06273 3044 ft 230 kts 124°
2026-05-03 20:48 63.84199 -23.03214 3090 ft 228 kts 113°
2026-05-03 20:48 63.83772 -22.99845 3151 ft 225 kts 94°
2026-05-03 20:48 63.83614 -22.96280 3249 ft 223 kts 89°
2026-05-03 20:48 63.83561 -22.92709 3336 ft 222 kts 85°
2026-05-03 20:49 63.83619 -22.89108 3359 ft 224 kts 80°
2026-05-03 20:49 63.83848 -22.85560 2922 ft 232 kts 77°
2026-05-03 20:49 63.84090 -22.81944 3026 ft 215 kts 77°
2026-05-03 20:49 63.84325 -22.78501 2981 ft 212 kts 76°
2026-05-03 20:50 63.84555 -22.75143 3017 ft 209 kts 76°
2026-05-03 20:50 63.84779 -22.71871 3002 ft 209 kts 77°
2026-05-03 20:50 63.85001 -22.68591 3003 ft 210 kts 77°
2026-05-03 20:50 63.85223 -22.65313 3016 ft 210 kts 76°
2026-05-03 20:51 63.85443 -22.62046 3008 ft 211 kts 76°
2026-05-03 20:51 63.85661 -22.58797 3002 ft 210 kts 76°
2026-05-03 20:51 63.85880 -22.55521 3003 ft 210 kts 76°
2026-05-03 20:51 63.86098 -22.52265 3005 ft 210 kts 77°
2026-05-03 20:52 63.86313 -22.49021 3002 ft 211 kts 77°
2026-05-03 20:52 63.86532 -22.45723 3000 ft 210 kts 77°
2026-05-03 20:52 63.86758 -22.42312 3043 ft 228 kts 77°
2026-05-03 20:52 63.86994 -22.38733 3005 ft 234 kts 77°
2026-05-03 20:53 63.87235 -22.35052 2995 ft 234 kts 77°
2026-05-03 20:53 63.87470 -22.31412 2990 ft 232 kts 78°
2026-05-03 20:53 63.87703 -22.27829 2981 ft 230 kts 78°
2026-05-03 20:53 63.87934 -22.24238 2990 ft 230 kts 78°
2026-05-03 20:54 63.88457 -22.20908 2976 ft 223 kts 49°
2026-05-03 20:54 63.90972 -22.18768 2984 ft 193 kts 348°
2026-05-03 20:54 63.92267 -22.19443 2995 ft 192 kts 345°
2026-05-03 20:55 63.93557 -22.20308 2970 ft 190 kts 342°
2026-05-03 20:55 63.94772 -22.21221 2995 ft 182 kts 341°
2026-05-03 20:55 63.95953 -22.22149 3091 ft 182 kts 341°
2026-05-03 20:55 63.97131 -22.23091 2920 ft 172 kts 341°
2026-05-03 20:56 63.98090 -22.24394 2986 ft 163 kts 314°
2026-05-03 20:56 63.98584 -22.26695 2940 ft 168 kts 278°
2026-05-03 20:56 63.98517 -22.29371 2859 ft 172 kts 271°
2026-05-03 20:56 63.98484 -22.32053 2596 ft 166 kts 274°
2026-05-03 20:57 63.98473 -22.34642 2362 ft 161 kts 275°
2026-05-03 20:57 63.98473 -22.37174 2143 ft 160 kts 276°
2026-05-03 20:57 63.98476 -22.39710 1924 ft 159 kts 275°
2026-05-03 20:57 63.98480 -22.42228 1703 ft 159 kts 275°
2026-05-03 20:58 63.98484 -22.44782 1481 ft 159 kts 275°
2026-05-03 20:58 63.98486 -22.47315 1259 ft 158 kts 275°
2026-05-03 20:58 63.98490 -22.49816 1039 ft 158 kts 276°
2026-05-03 20:58 63.98496 -22.52338 820 ft 158 kts 275°
2026-05-03 20:59 63.98498 -22.54857 599 ft 158 kts 275°
2026-05-03 20:59 63.98500 -22.57327 383 ft 158 kts 275°
2026-05-03 20:59 63.98506 -22.59837 193 ft 158 kts 274°
2026-05-03 20:59 63.98531 -22.61974 148 ft 95 kts 266°
2026-05-03 21:00 63.98518 -22.62828 141 ft 15 kts 269°
2026-05-03 21:00 63.98517 -22.62859 141 ft 0 kts 269°
2026-05-03 21:00 63.98515 -22.63017 140 ft 19 kts 269°
2026-05-03 21:00 63.98516 -22.63485 134 ft 39 kts 274°
2026-05-03 21:01 63.98573 -22.63907 130 ft 0 kts 302°
2026-05-03 21:01 63.98592 -22.63975 129 ft 11 kts 303°
2026-05-03 21:01 63.98685 -22.64152 127 ft 23 kts 348°
2026-05-03 21:01 63.98836 -22.64110 128 ft 18 kts 53°
2026-05-03 21:02 63.98855 -22.63779 134 ft 25 kts 91°
2026-05-03 21:02 63.98854 -22.63319 138 ft 33 kts 91°
2026-05-03 21:02 63.98911 -22.62874 144 ft 29 kts 25°
2026-05-03 21:02 63.99113 -22.62727 144 ft 25 kts 17°
2026-05-03 21:03 63.99186 -22.62448 145 ft 6 kts 49°
2026-05-03 21:03 63.99235 -22.62460 145 ft 8 kts 359°
2026-05-03 21:03 63.99249 -22.62461 145 ft 5 kts 360°
2026-05-03 21:03 63.99274 -22.62461 145 ft 0 kts